Regional Weather Roundup
Issued by NWS Albany, NY

Current Version | Previous Version | Graphics & Text | Print | Product List | Glossary Off
Versions: 1 2 3 4 5 6 7 8 9 10 11 12 13 14 15 16 17 18 19 20 21 22 23 24 25 26 27 28 29 30 31 32 33 34 35 36 37 38 39 40 41 42 43 44 45 46 47 48 49 50

000
ASUS41 KALY 022310
RWRALY

NEW YORK STATE HOURLY WEATHER ROUNDUP
NATIONAL WEATHER SERVICE ALBANY NY
600 PM EST MON MAR 02 2015

NOTE: "FAIR" INDICATES FEW OR NO CLOUDS BELOW 12,000 FEET WITH NO
SIGNIFICANT WEATHER AND/OR NO OBSTRUCTIONS TO VISIBILITY.

NYZ032-033-038>043-046>054-057>066-NYZ062>081-030000-
EAST


CITY           SKY/WX    TMP DP  RH WIND       PRES   REMARKS
ALBANY         FLURRIES  27  15  61 NW21G37   30.22R WCI  13
GLENS FALLS    CLOUDY    28   9  44 W13G25    30.17R WCI  17
POUGHKEEPSIE   CLEAR     31  10  41 W10       30.21R WCI  22
NEWBURGH       CLEAR     30  14  51 NW20G28   30.20R WCI  18
MONTGOMERY     CLEAR     31   8  38 NW15G24   30.21R WCI  20
WHITE PLAINS   CLEAR     31  10  41 NW15G30   30.17R WCI  20
ISLIP          CLEAR     32  13  45 NW9       30.17R WCI  24
NEW YORK CITY  CLEAR     36  12  37 NW17      30.20R WCI  26
CENTRAL PARK   CLEAR     36  11  35 W9        30.22R WCI  29
$$

NYZ005>009-017-018-044>046-055-056-030000-
CENTRAL


CITY           SKY/WX    TMP DP  RH WIND       PRES   REMARKS
FULTON         CLOUDY    25  13  60 NW18G31   30.32R WCI  11
SYRACUSE       FLURRIES  22  14  71 MISG      30.30R
ROME           CLOUDY    23  13  65 NW16G24   30.29R WCI  10
ELMIRA         CLEAR     25   9  50 NW10G16   30.32R WCI  15
BINGHAMTON     CLEAR     21   9  59 NW13G25   30.22R WCI   9
MONTICELLO     CLEAR     23  10  58 NW21G40   30.17R WCI   8
$$

NYZ026>034-041>043-030000-
NORTH


CITY           SKY/WX    TMP DP  RH WIND       PRES   REMARKS
WATERTOWN      PTCLDY    24  11  57 W15G21    30.29R WCI  11
FORT DRUM      NOT AVBL
MASSENA        CLEAR     23   5  46 W13G22    30.25R WCI  11
SARANAC LAKE   MOCLDY    18  11  74 W9G18     30.08R WCI   7
PLATTSBURGH    PTCLDY    25   9  50 NW17G25   30.17R WCI  12
$$

NYZ001>004-010>016-019>021-030000-
WEST


CITY           SKY/WX    TMP DP  RH WIND       PRES   REMARKS
NIAGARA FALLS  PTCLDY    22   9  57 W16       30.39R WCI   8
BUFFALO        PTCLDY    23   9  55 W13G21    30.39R WCI  11
DUNKIRK        MOCLDY    22  15  75 W14G21    30.43R WCI   9
JAMESTOWN      CLOUDY    19   9  63 W9G17     30.34R WCI   9
WELLSVILLE     CLEAR     19   7  59 NW13      30.27R WCI   6
ROCHESTER      PTCLDY    25   9  50 NW16G25   30.36R WCI  12
PENN YAN       CLOUDY    24  10  55 W8G22     30.32R WCI  15
$$

             KEY
       WCI = WIND CHILL INDEX
       VSB = VISIBILITY
       HX  = HEAT INDEX
$$



USA.gov is the U.S. government's official web portal to all federal, state and local government web resources and services.